Wind_Speed
83 83 83 84 84 84 84 84 84 84 84 85 85 85 86 86 86 85 85 84 83 82 81 80 78 77 75 74 72 70 67 66 65 64 63 63 63 63 64 65 66 68 69 71 72 74 76 78 80 82 83 85 86 87 87 87 87 87 87 86 85 84 84 83 83 83 82 80 78 75 72 69 67 66 65 65 65 65 65 65 65 65 64 64 63 62
83 83 83 83 83 83 84 84 84 84 85 85 86 86 86 86 86 86 85 84 83 81 80 78 76 74 71 69 67 65 64 63 63 63 64 64 65 66 67 69 71 72 74 75 76 77 79 81 83 85 86 86 87 87 88 88 88 87 87 86 85 85 84 84 83 82 81 78 75 72 69 67 66 65 65 65 65 65 65 65 64 64 63 63 62 61
83 83 83 83 83 83 83 84 84 85 85 86 86 87 87 86 86 85 84 83 81 79 77 75 72 70 67 65 64 63 63 63 64 65 66 68 69 70 72 73 75 76 77 78 79 81 82 84 86 87 87 88 88 89 89 89 88 88 87 86 86 85 84 84 82 80 78 75 71 69 67 66 65 65 65 65 65 65 64 64 63 63 62 62 61 59
82 82 82 83 83 83 83 84 85 85 86 86 86 86 86 85 84 82 81 79 77 75 72 70 68 67 66 65 65 65 66 67 68 69 70 71 73 74 75 76 78 79 80 82 83 84 85 87 88 89 89 90 90 90 89 89 88 88 87 87 86 85 84 82 80 77 74 71 69 67 66 66 66 66 66 65 65 64 64 63 63 62 61 60 59 58
81 82 82 83 84 84 85 86 86 86 86 86 85 84 83 82 80 79 77 75 74 72 71 70 70 69 69 69 69 70 71 71 72 73 74 75 76 77 78 79 81 82 84 85 86 87 88 89 90 91 91 91 91 90 90 89 89 88 88 87 86 84 82 80 77 74 72 70 68 67 66 66 66 66 65 65 64 64 63 62 61 61 60 59 58 56
83 84 84 85 86 87 88 88 88 87 87 86 85 84 82 81 80 79 77 76 75 75 74 74 74 73 73 73 74 74 75 75 76 77 78 78 79 80 82 83 85 86 88 89 89 90 91 91 92 93 93 92 92 91 90 89 89 88 87 86 84 82 80 77 75 73 71 69 67 66 65 65 65 64 64 63 63 62 62 61 60 59 58 57 56 54
88 88 89 89 90 91 91 91 91 90 89 88 88 87 86 84 83 82 81 80 80 79 79 78 78 78 78 78 78 78 79 79 80 81 81 83 84 85 86 87 89 90 91 92 92 92 92 93 94 94 94 93 92 91 90 89 88 87 85 84 82 80 78 76 74 72 70 68 67 65 65 64 63 63 62 62 61 60 60 59 58 57 56 55 54 52
93 93 93 94 94 94 95 95 94 94 93 93 92 92 91 90 89 88 87 86 85 85 84 84 84 83 83 83 83 83 84 84 85 86 87 88 89 90 91 91 92 93 93 94 94 94 94 94 94 94 93 92 91 90 89 88 87 85 83 81 80 78 76 75 73 71 69 68 66 65 63 63 62 61 60 59 59 58 57 56 55 55 54 52 51 50
97 97 97 97 97 96 96 97 97 97 96 96 96 95 95 95 94 93 93 92 91 91 90 90 90 90 90 89 89 89 89 90 90 91 92 92 93 93 94 94 95 95 95 95 95 95 95 94 94 93 93 92 90 89 88 86 85 83 81 80 78 77 75 74 72 70 69 67 65 64 62 61 60 59 58 57 56 55 54 54 53 52 51 50 50 49
101 100 100 99 99 98 98 98 98 98 98 97 97 97 97 96 96 96 96 95 95 95 95 94 94 95 95 95 94 94 94 94 95 95 95 95 96 96 96 96 96 96 96 96 96 95 94 94 93 92 91 90 89 87 86 84 83 81 80 78 77 75 74 72 71 69 68 66 64 62 61 60 59 57 56 55 54 53 52 51 51 50 50 49 49 48
105 104 103 102 102 101 100 100 100 99 99 99 98 98 98 97 97 96 96 96 96 96 96 96 96 97 97 97 97 97 97 97 97 98 98 98 98 98 98 98 98 98 97 97 96 95 94 93 92 91 90 88 87 85 84 83 82 80 79 77 75 74 72 70 69 68 66 65 63 61 60 58 57 55 54 53 52 51 51 50 50 49 49 49 48 48
108 107 107 106 105 105 104 103 103 102 101 101 100 99 99 99 98 97 97 97 97 97 97 97 97 98 98 98 99 99 99 99 100 100 100 100 99 99 99 99 99 98 97 96 95 94 92 91 90 89 88 87 86 85 83 82 81 79 77 76 74 72 70 69 67 66 65 64 62 61 59 57 55 54 53 52 51 51 50 50 50 49 49 49 48 48
112 112 111 111 110 110 109 108 107 106 105 104 103 102 102 101 100 99 99 98 98 98 98 98 98 99 99 99 99 99 100 100 100 100 100 100 100 99 99 99 98 97 96 95 94 93 91 90 89 88 87 86 85 84 83 82 80 78 76 74 72 70 68 67 66 65 64 63 62 60 59 57 55 53 52 51 51 51 50 50 50 49 49 49 49 48
117 117 116 116 116 115 114 113 112 110 109 108 107 106 105 104 103 102 101 101 101 100 99 99 99 99 99 98 98 98 99 99 99 99 99 99 99 98 98 97 97 96 95 94 93 92 91 90 89 88 86 85 84 83 82 81 79 77 74 72 71 69 67 65 64 63 63 62 61 60 59 57 55 54 53 52 51 51 50 50 49 49 49 49 49 49
120 120 120 119 119 119 118 117 116 114 113 112 111 109 108 107 106 105 104 103 102 102 101 100 100 99 99 98 98 98 98 99 99 99 99 98 98 97 97 96 96 95 94 93 92 91 91 90 89 87 86 84 83 82 82 81 78 75 72 71 69 67 65 64 63 62 62 61 60 59 58 57 56 55 54 53 52 51 50 49 49 49 49 49 49 49
122 122 121 121 121 121 120 119 118 117 116 115 113 112 111 109 108 107 106 105 104 103 102 102 101 101 100 100 99 99 99 99 99 99 99 99 98 97 96 96 95 95 94 93 92 91 91 90 88 87 84 82 81 80 81 80 78 74 70 68 67 65 63 62 61 61 61 60 60 59 58 57 56 56 56 54 53 52 50 50 50 50 50 50 50 50
122 122 122 122 122 121 121 120 119 119 118 117 116 114 113 111 110 109 108 107 106 105 104 103 103 102 102 101 101 100 100 100 100 99 99 99 98 97 96 96 95 95 94 93 92 91 90 89 87 84 82 79 78 78 79 79 76 71 68 66 64 63 62 61 60 60 60 59 59 59 58 57 56 56 55 54 53 51 51 51 51 51 51 51 51 51
122 122 121 121 121 121 121 120 120 120 119 118 117 116 114 113 111 110 109 109 108 107 106 105 104 104 103 103 102 101 100 100 99 99 98 98 98 97 96 96 95 95 94 94 92 91 89 86 84 81 78 76 75 75 76 76 73 69 66 64 63 62 61 60 60 59 59 59 59 59 58 58 57 56 55 54 53 52 52 52 52 52 52 52 52 53
122 122 121 121 121 121 120 120 120 120 119 119 118 116 115 113 112 111 110 110 109 108 107 106 106 105 104 103 102 101 100 99 99 98 98 98 97 97 96 96 95 95 94 93 91 89 87 84 81 78 75 73 72 72 73 72 70 66 64 62 61 60 60 60 59 59 59 58 59 59 59 58 57 56 55 54 53 53 53 53 53 53 53 53 53 53
124 123 122 122 121 121 120 120 120 120 119 119 117 116 115 113 112 112 111 110 110 109 108 107 106 105 104 103 103 102 101 100 99 98 98 98 98 97 97 96 95 94 93 92 89 87 84 81 77 74 71 69 68 68 69 68 66 64 62 60 60 60 60 59 59 58 58 59 60 60 60 59 58 57 56 55 54 54 54 54 54 53 54 54 54 53
125 125 124 123 122 122 122 122 121 121 120 119 117 116 115 114 113 112 112 111 110 109 108 107 107 106 105 104 103 103 102 101 100 99 99 99 98 97 96 95 94 93 91 89 86 83 80 77 74 71 68 66 66 66 66 65 63 62 60 59 59 59 59 58 58 59 60 61 62 62 61 60 58 57 57 56 55 55 55 54 54 54 55 55 54 52
126 126 125 125 124 123 123 123 122 122 120 119 118 117 115 114 113 113 112 111 110 110 109 108 108 107 106 105 105 104 103 102 101 100 100 99 98 97 96 94 92 90 88 85 82 79 76 73 71 68 66 64 63 63 63 62 61 60 58 58 58 58 57 58 59 61 62 63 64 63 62 60 59 58 57 57 56 56 55 55 55 55 55 54 53 51
127 126 126 125 125 124 124 123 123 122 121 120 118 117 116 114 113 113 112 111 110 110 110 109 109 108 108 107 106 105 104 102 101 100 99 99 98 96 94 92 89 87 84 81 79 76 73 71 68 66 64 62 62 61 61 60 59 58 57 57 56 56 57 58 60 61 63 64 65 64 62 61 59 58 58 57 57 56 56 56 56 55 55 53 52 50
128 127 127 126 126 125 125 124 123 122 121 120 119 117 116 114 113 112 112 111 110 110 110 110 110 109 108 108 107 105 104 102 101 99 99 98 97 95 92 89 86 83 81 78 75 73 70 68 66 64 63 61 60 60 59 59 58 57 56 56 56 56 57 58 59 61 63 64 65 64 63 61 60 59 58 58 58 57 57 57 56 55 53 52 50 49
129 129 128 128 127 127 126 125 124 123 122 120 119 117 116 115 113 113 112 111 111 111 110 110 110 109 108 107 105 104 103 101 99 98 97 96 94 92 89 85 82 80 78 75 73 71 68 67 65 63 62 61 60 59 58 58 57 57 56 56 56 56 57 58 60 61 62 63 64 64 63 62 61 60 59 59 59 59 58 57 56 54 52 51 50 49
132 131 130 130 129 128 128 127 125 124 122 121 119 118 116 115 114 113 113 112 112 112 111 111 110 109 107 105 104 102 100 98 97 95 93 91 90 87 85 82 79 76 74 73 71 69 67 66 65 63 62 61 60 59 59 58 57 57 56 56 56 57 58 59 60 61 62 62 63 63 63 62 62 61 61 60 60 60 59 57 55 53 52 51 50 50
134 134 133 132 131 130 129 128 126 124 123 121 119 118 116 115 115 114 114 114 113 112 112 111 110 108 106 104 102 100 98 95 93 91 88 86 84 82 80 78 75 73 72 70 69 68 67 66 65 64 63 62 61 60 60 59 59 58 58 57 57 58 59 59 60 61 61 62 62 62 63 63 62 62 62 61 61 59 58 56 54 53 52 52 52 52
136 135 134 133 132 130 129 128 126 124 122 121 119 118 116 116 115 115 115 114 113 112 112 110 109 107 105 103 101 98 95 92 89 86 84 81 79 78 76 74 72 70 69 69 68 67 66 66 65 65 64 64 63 62 62 62 61 60 60 59 59 60 60 61 61 61 62 62 62 63 63 63 63 62 62 61 60 58 56 55 54 53 53 53 54 54
136 135 133 132 130 129 127 126 124 123 121 120 119 117 116 116 116 116 115 114 113 112 111 109 107 105 103 101 98 95 92 89 86 82 79 77 76 74 72 70 69 68 67 67 66 66 66 66 65 65 65 65 65 65 65 64 64 64 63 63 63 62 63 63 63 63 63 63 63 63 63 63 62 62 61 59 58 57 56 56 55 55 55 56 56 57
133 132 130 129 127 126 125 123 122 121 120 119 118 117 116 115 115 115 114 113 112 111 110 108 106 104 101 99 96 93 89 86 82 79 76 74 73 72 70 68 67 66 65 64 64 64 64 64 64 65 65 66 66 67 67 67 67 67 67 66 66 66 65 65 65 64 64 63 63 63 62 62 61 60 59 58 58 58 57 57 57 57 57 58 59 59
129 128 127 125 124 123 122 121 120 119 119 118 117 116 115 115 114 114 113 111 110 109 108 106 104 102 99 96 93 90 87 84 80 77 75 73 72 71 69 67 66 65 64 63 63 63 63 63 63 63 64 64 65 67 67 68 68 68 68 68 68 68 67 66 65 64 63 62 61 60 60 59 59 59 58 59 59 59 59 59 59 59 60 60 61 62
126 125 124 122 121 120 120 119 118 118 117 117 116 115 114 114 113 112 111 110 108 107 106 104 102 100 97 94 91 88 85 82 79 76 74 73 72 71 69 68 67 66 65 64 63 63 63 62 62 62 62 62 63 65 66 67 68 68 68 68 68 67 66 65 64 62 61 59 59 58 58 58 58 59 59 60 60 61 61 61 61 62 62 63 63 64
123 122 121 120 120 119 118 118 117 117 116 116 115 114 114 113 112 111 110 108 107 105 104 102 100 98 96 93 90 87 85 82 79 77 75 74 73 72 71 70 69 68 67 66 65 65 64 63 63 62 61 61 62 63 64 65 66 67 67 67 66 66 65 64 62 60 59 59 58 58 59 59 60 61 61 62 63 63 64 64 64 64 64 64 65 66
122 121 120 119 119 118 118 117 117 116 116 115 115 114 113 112 111 110 109 107 106 104 102 101 99 97 94 92 89 86 84 82 80 78 76 75 74 74 73 72 71 70 69 68 68 67 66 65 65 63 62 62 61 61 62 63 64 65 66 66 66 66 65 64 63 61 61 60 60 60 60 61 62 63 63 64 65 65 66 66 66 66 66 66 67 68
121 120 120 119 119 118 118 117 117 116 116 115 115 114 113 112 111 110 109 107 105 103 101 99 97 95 93 91 89 86 84 82 81 79 77 76 76 75 74 74 73 72 71 70 70 69 69 68 67 65 64 63 62 62 61 61 62 63 64 65 65 66 66 65 65 64 63 62 62 62 62 62 63 64 65 66 67 68 68 69 69 69 69 69 70 71
122 121 120 119 119 119 118 118 117 117 116 115 115 114 113 112 111 110 108 107 105 103 100 98 96 94 92 90 89 87 85 83 82 80 79 78 77 77 76 75 75 74 73 73 72 71 71 70 69 68 66 64 63 62 61 61 60 61 62 63 64 65 66 66 66 66 66 65 64 64 64 64 65 65 66 67 69 70 71 72 73 73 73 74 74 75
122 121 120 119 119 119 118 118 117 117 116 115 115 114 113 112 111 110 108 106 105 102 100 98 96 94 93 91 89 88 86 84 83 82 81 80 79 78 78 77 77 76 75 74 74 73 73 72 71 70 68 66 65 63 62 60 60 60 61 62 63 64 65 66 67 68 68 68 67 67 67 67 68 68 69 70 71 73 74 75 77 78 78 78 79 79
123 122 120 119 119 118 118 118 117 117 116 115 115 114 113 112 111 109 108 106 105 103 101 99 97 95 94 92 91 89 88 86 85 84 83 82 81 80 79 79 79 78 77 77 76 75 74 74 73 72 70 69 66 64 62 60 60 60 60 61 62 63 64 65 67 68 69 70 70 71 71 71 72 72 73 74 75 76 77 78 79 80 81 81 81 80
122 121 120 119 118 118 117 117 117 116 115 114 114 113 112 111 110 109 108 106 105 103 101 99 98 97 95 94 93 91 90 88 87 86 85 84 83 82 81 81 80 80 80 79 78 77 77 76 75 74 73 70 67 64 62 60 60 60 61 61 61 62 62 63 65 66 68 70 71 72 73 74 75 75 76 76 77 77 78 79 80 81 82 82 81 80
120 119 118 118 117 116 116 115 115 114 114 113 113 112 111 110 109 108 107 106 105 103 102 100 99 98 97 96 95 93 92 91 90 88 87 86 85 84 83 82 82 81 81 81 80 79 78 78 78 77 76 73 69 65 62 61 60 60 61 61 61 61 61 61 62 63 65 67 68 70 72 73 74 75 75 76 76 76 77 78 79 80 81 80 78 77
116 116 116 115 114 114 114 113 113 113 112 112 112 111 110 110 109 108 107 106 105 104 103 101 100 99 98 97 96 95 94 93 92 91 90 89 87 86 85 84 83 82 82 81 80 80 79 78 79 79 79 76 72 68 64 62 61 61 61 62 62 61 61 60 60 60 61 63 64 65 67 68 70 71 72 72 73 74 75 76 77 78 78 77 75 74
114 114 114 113 113 112 112 112 112 111 111 111 111 110 110 109 108 108 107 107 106 105 103 102 101 100 99 99 98 97 96 95 94 93 92 91 90 88 87 86 84 83 82 81 80 79 78 78 78 79 80 79 76 72 67 64 62 62 62 62 62 62 61 60 59 59 59 60 60 61 62 63 65 66 67 68 69 70 71 72 73 74 74 72 71 71
114 114 113 113 112 112 111 111 111 111 110 110 110 110 109 109 108 108 107 107 106 106 105 104 103 102 101 100 99 99 98 96 96 94 93 92 91 90 89 87 86 84 83 81 80 79 78 77 77 78 79 80 78 75 71 68 65 64 63 63 62 62 61 61 60 59 59 59 59 59 59 60 61 62 62 64 65 66 67 68 69 69 69 68 68 68
115 115 114 114 113 112 112 111 111 111 110 110 110 110 109 109 109 108 108 108 107 107 106 105 104 103 102 102 101 100 99 98 97 96 95 93 92 91 90 89 87 86 84 82 80 79 78 77 77 77 78 79 78 77 74 71 68 67 65 64 63 63 62 61 60 59 59 58 58 58 58 59 59 59 60 61 62 63 64 64 65 65 65 65 65 66
117 116 116 116 115 114 114 113 112 112 111 111 111 111 110 110 110 109 109 109 109 108 107 107 106 105 104 104 103 102 100 99 98 97 96 95 93 92 91 90 89 87 86 83 81 79 78 77 77 77 78 78 78 77 75 73 71 69 68 66 65 64 63 62 61 60 59 58 58 58 57 57 57 57 58 58 59 60 60 60 61 61 61 61 62 63
118 118 118 118 117 117 116 115 114 113 113 113 112 112 112 111 111 111 111 110 110 110 109 108 107 107 106 106 105 104 102 101 100 98 97 96 94 93 92 91 90 89 87 85 83 81 79 78 77 77 77 77 77 77 76 74 73 71 70 68 66 65 64 63 62 61 60 59 58 57 57 56 56 56 56 56 57 57 57 57 57 57 58 58 59 60
121 120 120 120 119 119 118 118 117 116 115 115 114 114 113 113 113 113 112 112 112 111 111 110 109 109 108 107 107 105 104 103 102 100 99 97 96 94 93 92 91 90 88 87 85 83 81 80 78 78 77 77 77 77 76 75 73 72 71 69 68 66 65 64 63 62 60 59 58 57 56 56 55 55 55 55 55 55 55 55 55 55 55 56 56 57
123 122 122 122 121 121 121 120 119 118 118 117 116 116 115 115 115 115 114 114 114 113 113 112 111 111 110 109 108 107 106 105 104 102 100 99 97 96 95 93 92 91 89 88 86 85 83 82 80 79 78 77 77 76 76 75 74 72 71 70 68 67 66 65 64 62 61 60 59 58 57 56 55 55 55 54 54 54 54 54 53 53 53 54 54 54
126 125 124 124 123 123 123 122 121 120 120 119 118 118 117 117 117 117 117 116 116 116 115 114 113 113 112 111 110 109 108 107 105 104 102 101 99 97 96 94 93 91 90 89 87 86 85 83 82 81 79 78 77 77 76 75 74 73 71 70 69 67 66 65 64 62 61 60 59 58 57 56 55 55 55 54 54 54 54 54 54 53 53 53 53 53
129 128 127 126 126 125 125 124 123 123 122 121 120 120 119 119 119 119 119 118 118 118 117 116 115 114 113 113 112 111 110 108 107 105 104 103 101 99 97 96 94 92 91 89 88 87 85 84 83 82 81 80 78 77 76 75 74 73 72 70 69 67 66 65 63 62 60 59 58 57 56 56 55 55 55 54 55 55 55 54 54 54 53 53 53 53
131 131 130 129 128 128 127 126 125 125 124 123 122 122 121 121 121 121 120 120 120 120 119 118 117 116 115 114 114 113 111 110 108 107 106 104 102 100 99 97 95 94 92 90 89 88 86 85 84 83 83 82 80 79 77 76 75 74 73 71 70 68 66 65 63 61 60 59 58 57 56 55 55 55 54 54 55 55 55 55 55 55 54 54 54 54
Wind_Direction
284 284 285 286 286 287 287 287 288 288 288 288 289 289 290 290 290 290 290 291 291 291 291 291 291 292 293 293 294 295 295 295 295 294 293 292 290 289 288 287 286 286 287 287 288 289 290 291 292 293 294 296 297 298 299 300 301 302 303 304 304 305 305 306 306 307 307 307 307 306 305 304 303 301 299 298 298 298 299 300 301 302 303 304 306 308
285 286 286 286 287 287 287 287 288 288 288 288 289 289 290 290 290 291 291 291 292 292 293 293 293 294 294 295 295 294 293 292 291 289 288 287 286 286 285 285 285 286 287 288 288 289 290 291 292 293 295 296 297 298 299 300 301 302 303 303 304 304 305 305 306 306 306 306 306 305 304 302 301 299 298 298 298 299 299 300 301 302 303 304 306 307
285 286 286 286 286 286 287 287 287 288 288 288 289 289 290 290 291 291 292 292 293 293 294 294 294 294 293 292 291 289 288 286 285 284 284 284 284 284 284 285 285 286 287 288 289 290 291 292 293 294 295 296 297 298 299 300 301 302 302 303 303 304 304 305 305 306 306 306 305 303 302 300 299 298 297 297 298 299 300 300 301 302 303 304 306 307
285 285 286 286 286 286 287 287 287 288 288 289 289 290 290 291 291 292 292 293 293 292 292 292 291 290 288 287 286 284 283 283 282 282 282 283 283 284 284 285 285 286 287 288 289 290 291 292 293 294 295 297 298 299 299 300 301 301 302 302 303 303 304 304 305 305 305 304 303 301 300 298 298 297 297 297 298 299 300 301 302 303 303 304 306 307
283 284 284 285 285 286 286 287 287 288 289 289 290 290 290 290 291 291 291 290 289 289 288 287 286 285 284 283 283 282 282 281 282 282 282 282 283 283 284 284 285 286 287 288 289 290 291 293 294 295 296 297 297 298 299 300 300 300 301 301 302 303 303 304 304 304 303 302 301 300 299 298 297 297 297 298 299 299 300 301 302 303 303 304 305 307
280 281 282 283 283 284 285 286 286 287 288 288 288 288 288 288 288 288 287 287 286 285 285 284 283 283 282 282 281 281 281 281 281 281 282 282 282 283 283 284 285 286 287 288 289 290 292 293 294 295 296 297 297 298 299 299 299 300 300 301 302 302 303 303 303 303 302 301 300 299 298 298 297 297 298 298 299 300 301 301 302 303 303 304 305 306
278 279 280 280 281 282 282 283 284 284 285 285 285 285 285 285 285 285 284 284 284 283 283 282 282 282 281 281 281 280 280 280 280 281 281 281 282 282 283 284 285 286 287 288 289 291 292 293 294 295 296 296 297 298 298 299 299 299 300 301 301 302 302 302 302 302 301 300 300 299 298 298 297 298 298 299 300 300 301 301 302 302 303 303 304 305
277 278 279 279 280 281 281 281 281 281 282 282 282 282 282 282 282 282 282 282 282 281 281 281 281 281 280 280 280 280 280 280 280 280 281 281 282 283 283 284 285 286 287 289 290 291 292 293 294 295 295 296 297 297 298 298 299 299 300 300 301 301 301 301 301 301 300 299 299 298 298 297 297 298 299 299 300 300 301 301 301 302 302 303 303 304
277 278 279 280 280 281 281 281 281 281 281 280 280 280 280 280 280 280 280 280 280 280 280 280 280 280 280 279 279 279 279 280 280 281 281 282 283 283 284 285 286 287 288 289 290 291 292 293 294 294 295 296 296 297 297 298 298 299 299 300 300 300 300 300 300 300 299 299 298 298 298 297 298 298 299 299 300 300 300 300 301 301 301 301 302 303
277 278 279 280 280 281 281 281 281 281 281 281 280 280 280 280 280 280 280 279 279 279 279 279 279 279 280 280 280 280 280 280 281 281 282 282 283 284 285 286 287 288 289 290 291 292 292 293 294 294 295 295 296 297 297 297 298 298 298 299 299 299 299 299 299 298 298 298 298 298 298 297 298 298 299 299 299 300 300 300 300 300 300 300 301 302
277 278 278 279 280 281 281 281 281 281 281 281 281 280 280 280 279 279 279 279 279 279 279 279 279 279 280 280 280 280 281 281 281 282 282 283 284 285 285 286 287 288 289 290 291 291 292 293 293 294 295 295 296 296 296 296 297 297 297 298 298 298 298 297 297 297 297 297 297 297 297 297 298 298 298 299 299 299 299 299 299 299 299 300 300 301
276 277 278 279 280 280 281 281 281 281 281 281 280 280 279 279 279 279 279 279 279 279 279 279 279 279 280 280 280 281 281 282 282 282 283 284 284 285 286 287 287 288 289 290 291 291 292 292 293 294 295 295 296 296 295 295 296 296 296 296 296 296 296 296 296 296 296 296 297 297 297 297 298 298 298 298 298 298 298 298 298 298 298 299 300 301
276 277 277 278 279 280 280 281 281 281 280 280 279 279 279 279 279 278 278 278 278 279 279 279 280 280 280 281 281 281 282 282 283 283 284 284 285 286 286 287 288 288 289 290 291 291 292 292 293 294 294 295 295 294 294 294 294 294 294 295 295 294 294 294 294 294 294 295 296 296 296 297 297 298 298 298 298 298 298 297 297 297 298 299 300 301
276 276 277 278 278 279 280 280 280 281 280 280 279 279 279 279 279 278 278 278 279 279 279 280 280 281 281 282 282 283 283 283 284 284 285 285 286 286 287 288 288 289 289 290 291 291 292 292 293 293 294 294 294 293 292 292 292 293 293 293 293 293 292 292 292 292 293 293 294 295 295 296 297 298 298 299 299 299 298 298 297 298 299 300 301 302
276 277 277 278 279 279 280 280 281 281 281 280 280 280 280 280 279 279 279 279 280 280 281 281 281 282 282 283 283 284 284 285 285 286 286 286 287 287 288 288 289 289 290 290 291 291 292 292 292 293 293 293 292 291 291 291 291 292 292 292 291 291 291 290 290 291 291 292 292 293 294 295 296 297 299 300 301 300 299 299 299 299 300 300 301 302
277 278 278 279 279 280 280 281 281 281 281 281 281 281 281 281 281 281 281 281 282 282 282 283 283 283 284 284 284 285 286 286 287 287 288 288 288 288 289 289 290 290 290 290 291 291 291 292 292 292 292 292 291 291 290 290 291 291 291 290 290 289 289 289 289 289 290 290 291 291 292 293 294 296 298 300 301 300 299 299 299 299 299 299 300 300
278 279 279 280 280 281 281 281 282 282 282 282 282 282 283 283 283 283 283 283 283 284 284 284 285 285 286 286 286 286 287 288 288 289 289 289 289 289 289 289 289 289 289 290 290 290 290 291 291 291 291 290 290 289 289 289 290 290 290 289 288 288 287 287 288 288 289 289 289 289 290 291 292 294 296 298 298 298 297 297 297 297 297 297 298 299
279 279 280 280 281 281 281 282 282 282 283 283 283 283 284 284 284 284 284 284 285 285 286 286 286 287 287 288 288 288 288 289 289 289 289 288 288 288 288 288 288 288 288 289 289 289 289 289 289 289 289 288 287 286 286 287 288 289 288 288 287 286 286 286 287 287 287 287 287 288 289 290 291 293 294 295 295 295 295 295 295 295 295 295 296 297
278 279 279 280 280 281 281 282 282 283 283 283 284 284 284 284 284 285 285 285 285 286 286 287 287 287 288 288 288 288 287 287 287 287 287 286 286 286 286 287 287 287 288 288 288 288 289 288 288 288 287 286 284 283 284 285 286 287 287 286 285 285 285 285 285 286 286 285 286 287 288 289 290 291 293 293 293 293 293 293 293 293 293 294 295 296
277 278 279 279 280 280 281 281 282 282 283 283 284 284 284 284 284 285 285 285 285 286 286 286 287 287 287 287 286 286 285 285 285 285 285 285 285 285 286 286 287 287 288 288 288 288 288 288 287 286 285 284 283 282 282 283 284 285 285 284 284 283 284 284 284 285 284 284 285 285 287 288 289 290 291 292 292 292 292 292 292 292 292 293 294 296
277 277 278 279 279 280 280 281 282 282 283 283 283 284 284 284 284 284 285 285 285 285 286 286 286 286 286 285 285 284 284 284 284 284 284 284 285 285 286 286 287 287 288 288 288 288 287 287 286 285 284 283 282 281 281 282 282 283 283 282 282 282 282 283 284 284 284 284 284 285 286 287 288 289 290 291 291 291 291 292 292 291 292 292 294 296
277 277 278 279 279 280 280 281 282 282 283 283 283 283 283 283 284 284 284 285 285 285 285 285 285 285 285 284 284 284 283 283 283 284 284 285 285 286 287 287 288 288 288 288 287 287 287 286 285 284 283 282 280 280 280 280 280 281 280 280 280 280 281 282 283 283 283 283 283 284 286 287 288 289 289 290 290 291 291 291 291 291 291 292 294 296
277 277 278 279 279 280 280 281 282 282 282 282 283 283 283 283 283 284 284 284 285 285 285 285 285 285 285 285 284 284 284 284 285 285 286 286 287 287 288 288 288 288 288 287 287 286 286 285 284 283 282 281 280 279 279 279 279 279 278 278 278 278 279 280 281 281 281 281 282 283 285 287 288 289 289 290 290 290 290 291 291 291 291 292 294 297
277 277 278 279 279 280 280 281 281 281 282 282 282 282 282 283 283 283 283 284 284 284 285 285 285 285 285 285 285 285 286 286 287 287 288 288 288 289 289 288 288 288 287 286 286 285 285 284 283 282 281 280 279 278 277 277 277 277 277 276 276 276 277 277 277 278 279 280 281 282 285 286 288 288 289 289 289 289 290 290 290 291 292 293 295 297
277 277 278 278 279 279 279 280 280 281 281 281 281 282 282 282 282 282 283 283 283 283 284 284 284 284 284 285 285 286 286 287 288 288 289 289 289 289 288 288 287 287 286 285 285 284 283 283 282 281 280 279 278 277 276 276 276 275 275 274 274 274 274 274 275 275 276 277 279 281 283 285 286 288 288 289 289 289 289 290 291 292 293 294 295 296
276 276 277 277 278 278 278 279 279 280 280 280 280 281 281 281 282 282 282 282 282 282 282 282 283 283 283 283 284 285 285 286 287 287 287 287 287 287 287 286 286 285 284 284 283 282 281 281 280 279 278 277 277 276 275 275 274 274 273 273 272 272 272 272 272 273 274 276 278 280 281 283 285 286 287 288 288 288 289 290 291 292 293 293 293 293
275 275 276 276 277 277 277 278 278 278 279 279 279 280 280 280 281 281 281 281 281 281 281 281 282 282 282 282 283 283 284 284 285 285 285 285 284 284 284 284 283 282 282 281 280 280 279 278 277 277 276 276 275 274 274 273 273 272 272 272 271 271 271 271 272 272 274 275 277 278 280 281 283 284 286 286 287 288 289 290 291 291 291 290 290 289
274 275 275 275 276 276 276 276 277 277 278 278 278 278 279 279 280 280 280 280 280 280 280 281 281 281 282 282 282 283 283 283 283 283 282 282 281 281 281 281 280 279 279 278 278 277 276 275 275 274 274 274 273 273 272 272 271 271 271 271 270 270 270 271 272 273 274 275 276 278 279 280 282 283 284 285 286 287 288 288 288 288 288 287 287 287
273 274 274 274 274 275 275 275 276 276 276 277 277 277 278 278 279 279 279 279 279 280 280 280 281 281 281 282 282 283 283 282 282 281 281 280 279 279 279 279 278 278 277 277 276 276 275 274 273 272 272 271 271 271 270 270 270 270 270 269 269 270 270 271 272 273 274 275 276 277 278 280 281 282 283 283 284 285 285 285 285 285 285 285 285 285
272 272 273 273 273 273 274 274 275 275 275 276 276 277 277 277 278 278 278 279 279 279 280 280 280 281 281 282 282 282 282 281 281 280 280 279 278 278 278 278 277 277 277 277 276 276 275 274 273 272 271 270 270 269 269 269 269 269 269 269 269 269 270 271 272 273 274 275 276 277 278 279 280 281 281 282 282 283 283 282 282 282 283 283 284 284
271 272 272 272 272 273 273 273 274 274 275 275 276 276 277 277 277 278 278 278 279 279 280 280 280 281 281 282 282 281 281 280 280 279 279 278 278 278 278 277 277 277 277 277 277 276 276 276 274 273 272 270 269 269 268 269 269 269 269 269 270 270 271 272 273 274 275 276 277 277 278 278 278 279 279 280 280 280 280 280 280 281 281 282 282 283
271 271 271 272 272 273 273 273 274 274 275 275 276 276 276 277 277 277 278 278 279 279 279 280 280 280 281 281 281 280 280 280 279 279 278 278 278 277 277 277 277 277 277 277 277 277 277 276 276 275 273 272 270 269 269 268 269 269 270 270 271 272 272 273 274 275 275 276 276 276 276 276 276 276 277 277 277 278 278 278 279 279 280 281 281 282
271 271 272 272 272 273 273 273 274 274 275 275 276 276 276 277 277 277 278 278 278 279 279 279 280 280 280 280 280 279 279 279 278 278 278 277 277 277 277 277 277 277 277 277 277 277 276 277 276 276 275 273 272 270 269 269 268 268 268 269 270 271 272 272 273 273 274 274 274 274 274 274 274 274 275 275 276 276 276 277 277 278 279 279 280 280
271 271 272 272 272 273 273 274 274 274 275 275 276 276 276 277 277 277 277 277 278 278 278 278 279 279 279 279 279 278 278 278 277 277 277 277 277 277 277 277 277 277 277 277 276 276 276 276 276 276 275 274 273 272 270 269 268 268 267 267 267 268 269 269 270 270 270 270 271 271 271 271 272 272 273 274 274 275 275 276 276 277 277 278 278 279
270 271 271 272 272 272 273 273 274 274 275 275 275 276 276 276 276 277 277 277 277 277 277 277 278 278 278 278 277 277 277 276 276 276 276 276 276 277 277 277 277 277 277 277 276 276 276 276 276 275 275 275 274 273 271 270 269 268 267 266 266 266 266 266 267 267 267 268 268 268 269 269 270 271 272 272 273 274 274 275 275 276 276 277 277 278
270 270 271 271 271 272 272 273 273 274 274 274 275 275 275 275 276 276 276 276 276 276 276 277 277 276 276 276 276 276 276 276 276 276 276 276 276 276 276 276 277 277 276 276 276 276 276 276 275 275 275 274 274 273 272 271 270 268 267 266 265 265 265 265 265 265 265 266 266 266 267 268 268 269 270 271 272 272 273 274 275 275 276 277 277 278
269 270 270 270 271 271 272 272 272 273 273 273 274 274 274 275 275 275 275 275 276 276 276 276 276 276 275 275 275 275 275 275 275 275 275 275 275 276 276 276 276 276 276 276 276 276 275 275 275 274 274 273 273 273 272 271 270 268 267 266 265 264 264 264 263 263 263 264 264 264 265 266 266 267 268 269 270 272 273 274 275 276 276 277 278 279
269 269 269 270 270 270 271 271 271 272 272 272 273 273 273 273 274 274 274 275 275 275 275 275 275 275 275 275 275 274 274 274 274 274 275 275 275 276 276 276 276 276 276 276 276 276 275 275 274 274 273 273 272 272 272 271 269 268 267 266 266 265 264 263 263 262 262 262 262 263 263 264 265 266 267 268 269 271 272 274 275 276 277 278 279 280
268 268 269 269 269 269 270 270 270 271 271 271 271 272 272 272 273 273 273 274 274 274 274 274 274 274 274 274 274 274 274 274 274 274 274 275 275 275 276 276 276 276 277 276 276 276 276 275 275 274 273 272 272 272 271 270 269 268 267 267 266 265 264 263 263 262 261 261 262 262 262 263 264 265 266 268 269 270 272 273 274 275 277 278 279 280
268 268 268 268 268 269 269 269 269 269 270 270 270 271 271 271 272 272 272 273 273 273 273 273 274 274 274 274 274 274 274 274 274 274 274 274 274 275 275 275 276 276 277 277 277 277 277 277 276 275 274 274 273 272 270 269 268 267 267 267 266 266 265 264 263 263 262 262 262 262 262 263 264 265 266 267 268 270 271 272 274 275 276 277 278 280
267 267 267 268 268 268 268 268 268 268 268 269 269 269 270 270 270 271 271 272 272 272 272 272 273 273 273 273 273 274 274 274 274 274 274 274 274 274 274 274 274 275 275 276 277 277 277 278 278 277 277 276 275 274 272 270 269 268 267 267 266 266 266 266 265 264 264 263 263 263 263 264 264 265 266 267 268 269 270 271 273 274 275 276 278 279
267 267 267 267 267 267 267 267 267 267 267 268 268 268 269 269 269 270 270 270 271 271 271 271 272 272 272 272 273 273 273 274 274 274 274 274 274 274 274 273 273 273 274 274 275 275 276 276 277 277 278 278 278 277 275 273 271 269 268 268 268 268 268 267 267 266 266 266 266 266 265 266 266 266 267 268 268 269 270 271 272 273 275 276 277 278
267 267 267 267 267 267 266 266 266 266 267 267 267 267 268 268 268 269 269 269 269 270 270 270 271 271 271 271 272 272 272 273 273 273 274 274 274 274 274 273 273 273 272 272 273 273 273 274 274 275 276 277 278 278 277 276 274 272 271 270 269 269 269 269 268 268 268 268 268 269 268 268 269 269 269 269 269 270 270 271 272 274 275 276 277 278
267 267 267 266 266 266 266 266 266 266 266 266 266 266 267 267 267 267 268 268 268 269 269 269 270 270 270 270 271 271 271 272 272 272 273 273 273 273 273 273 273 273 272 271 271 271 271 271 272 272 273 275 276 277 277 277 276 274 273 272 271 270 270 270 270 270 269 269 270 270 270 270 270 270 271 270 271 271 272 272 273 274 275 276 277 277
266 266 266 266 266 266 266 265 265 265 265 265 265 266 266 266 266 266 266 267 267 268 268 268 268 269 269 269 270 270 270 270 271 271 271 272 272 272 273 273 273 273 272 272 271 270 270 270 270 270 271 272 273 274 275 275 275 275 274 273 272 271 271 271 270 270 270 269 269 270 270 270 271 271 271 271 271 272 273 273 274 275 275 276 276 277
265 265 265 265 265 265 265 265 265 265 265 265 265 265 265 265 265 265 265 266 266 266 267 267 267 267 268 268 268 269 269 269 269 270 270 270 271 271 271 272 272 272 272 272 271 271 270 269 269 269 269 270 271 272 272 273 273 273 273 273 272 271 271 270 270 270 269 269 269 269 269 269 270 270 271 271 272 272 273 273 274 274 275 275 275 276
265 265 264 264 264 264 264 264 264 264 264 264 264 264 264 264 264 264 264 265 265 265 266 266 266 266 266 267 267 268 268 268 268 269 269 269 269 270 270 270 271 271 271 271 271 271 270 270 269 269 268 269 269 270 270 271 271 272 272 272 271 271 270 270 270 269 269 269 269 268 268 268 268 269 270 270 271 272 272 273 273 274 274 274 275 275
265 264 264 264 264 264 264 264 263 263 263 263 263 263 263 263 263 263 263 264 264 264 264 265 265 265 265 266 266 267 267 267 267 267 268 268 268 268 268 269 269 270 270 270 271 271 270 270 270 269 268 268 268 268 269 269 270 270 270 270 270 270 270 269 269 269 269 268 268 268 268 267 267 268 268 269 270 271 271 272 272 273 273 274 274 275
264 264 263 263 263 263 263 263 262 262 262 262 262 262 262 262 262 262 262 262 263 263 263 263 264 264 264 265 265 265 266 266 266 266 266 266 267 267 267 267 268 268 268 269 269 269 270 270 270 269 269 268 268 268 268 269 269 269 269 269 269 269 269 269 269 269 268 268 268 268 267 267 267 267 267 268 268 269 270 270 271 271 272 273 274 274
264 263 263 262 262 262 262 261 261 261 261 261 261 261 261 261 261 261 261 261 261 262 262 262 262 263 263 263 264 264 264 265 265 265 265 265 265 266 266 266 266 266 267 267 267 268 268 269 269 269 269 269 268 268 268 269 269 269 269 269 269 269 269 269 269 269 268 268 268 268 267 267 267 267 266 267 267 267 268 269 269 270 271 272 273 273
263 262 262 262 261 261 261 261 260 260 260 260 259 259 259 259 259 260 260 260 260 260 261 261 261 261 262 262 262 263 263 263 264 264 264 264 265 265 265 265 265 265 265 265 266 266 266 267 267 268 269 269 269 268 268 269 269 270 270 270 270 270 270 269 269 269 268 268 268 267 267 267 267 266 266 266 266 266 267 267 268 269 269 270 272 272
Height
10625 10624 10623 10622 10622 10622 10622 10622 10623 10622 10622 10622 10623 10623 10623 10624 10624 10625 10625 10625 10625 10625 10625 10625 10624 10623 10623 10622 10620 10620 10618 10617 10617 10618 10618 10617 10617 10617 10618 10618 10619 10619 10618 10618 10619 10618 10617 10614 10612 10611 10611 10610 10608 10607 10605 10603 10602 10601 10599 10598 10597 10595 10594 10593 10592 10590 10588 10587 10586 10585 10583 10582 10581 10580 10579 10578 10578 10577 10577 10576 10575 10574 10573 10572 10571 10570
10618 10618 10617 10617 10617 10616 10615 10616 10617 10617 10616 10616 10617 10617 10617 10617 10617 10617 10618 10618 10618 10618 10617 10617 10617 10616 10615 10615 10614 10613 10613 10613 10613 10613 10615 10615 10615 10614 10614 10615 10615 10614 10613 10614 10615 10615 10613 10610 10607 10605 10605 10605 10603 10602 10600 10598 10597 10596 10595 10593 10592 10591 10590 10589 10588 10586 10584 10583 10581 10580 10579 10578 10577 10576 10575 10574 10574 10573 10573 10572 10572 10570 10569 10568 10567 10567
10612 10612 10611 10611 10611 10610 10610 10610 10610 10610 10610 10610 10610 10610 10610 10610 10610 10610 10610 10610 10609 10609 10609 10609 10609 10610 10610 10610 10610 10610 10610 10610 10610 10610 10612 10612 10612 10611 10611 10610 10610 10609 10608 10608 10610 10611 10608 10605 10602 10600 10600 10600 10598 10597 10596 10594 10592 10591 10590 10588 10588 10587 10586 10585 10583 10582 10580 10578 10577 10576 10575 10573 10572 10571 10570 10570 10570 10569 10568 10568 10567 10567 10565 10564 10563 10563
10605 10605 10604 10604 10605 10604 10604 10604 10604 10603 10603 10603 10603 10603 10603 10603 10603 10602 10603 10603 10603 10603 10603 10605 10605 10606 10607 10607 10607 10607 10607 10607 10607 10607 10607 10608 10608 10608 10607 10606 10605 10604 10603 10603 10605 10606 10603 10600 10597 10595 10595 10595 10593 10593 10591 10589 10588 10587 10585 10584 10583 10582 10581 10580 10579 10578 10577 10575 10573 10572 10570 10569 10568 10567 10566 10566 10565 10565 10564 10563 10563 10562 10561 10560 10559 10559
10599 10599 10598 10598 10598 10598 10598 10598 10598 10597 10597 10597 10597 10597 10597 10597 10597 10598 10598 10598 10599 10600 10600 10601 10602 10603 10603 10603 10603 10603 10603 10602 10602 10603 10603 10603 10603 10603 10603 10602 10601 10600 10599 10599 10600 10600 10598 10595 10592 10590 10590 10589 10589 10588 10587 10585 10583 10582 10580 10580 10578 10578 10577 10575 10575 10573 10573 10571 10570 10568 10567 10565 10564 10563 10562 10562 10561 10560 10560 10559 10558 10558 10557 10556 10555 10555
10595 10595 10595 10595 10595 10594 10593 10593 10593 10592 10592 10592 10592 10592 10593 10593 10593 10594 10595 10595 10596 10596 10597 10597 10598 10598 10599 10599 10599 10599 10598 10598 10598 10598 10599 10599 10599 10598 10598 10597 10596 10595 10595 10595 10595 10595 10593 10590 10587 10585 10585 10584 10584 10583 10582 10580 10578 10577 10576 10575 10574 10573 10572 10571 10570 10569 10568 10567 10565 10563 10562 10561 10560 10558 10557 10557 10557 10556 10555 10555 10554 10553 10553 10552 10552 10551
10590 10591 10592 10592 10591 10591 10591 10590 10590 10590 10590 10589 10589 10589 10590 10590 10590 10591 10592 10592 10592 10592 10593 10593 10593 10594 10595 10595 10595 10595 10594 10593 10593 10594 10595 10595 10594 10593 10592 10591 10590 10590 10590 10590 10590 10589 10587 10585 10582 10580 10580 10579 10578 10578 10577 10575 10573 10572 10571 10570 10569 10568 10567 10567 10565 10564 10563 10562 10560 10559 10558 10557 10555 10555 10553 10553 10552 10552 10551 10551 10550 10550 10549 10549 10548 10548
10585 10585 10586 10587 10587 10587 10587 10586 10587 10587 10587 10587 10586 10587 10587 10587 10587 10588 10588 10588 10588 10588 10588 10588 10589 10589 10590 10590 10590 10590 10590 10589 10589 10589 10589 10589 10588 10587 10587 10585 10585 10585 10585 10585 10585 10583 10582 10580 10577 10575 10575 10573 10573 10573 10572 10570 10568 10567 10566 10565 10565 10563 10563 10562 10560 10559 10558 10557 10556 10555 10553 10553 10552 10551 10550 10550 10549 10548 10548 10547 10547 10547 10546 10545 10545 10545
10580 10580 10580 10580 10581 10581 10580 10580 10580 10581 10582 10582 10582 10582 10583 10583 10583 10583 10583 10584 10584 10584 10584 10584 10583 10583 10584 10585 10585 10585 10584 10583 10583 10583 10583 10583 10582 10582 10581 10580 10580 10580 10580 10579 10578 10578 10577 10574 10572 10570 10570 10568 10568 10567 10566 10565 10563 10562 10561 10560 10560 10558 10558 10557 10555 10554 10553 10552 10552 10550 10550 10548 10548 10547 10547 10547 10546 10545 10545 10544 10544 10543 10543 10542 10542 10541
10573 10573 10573 10573 10574 10575 10575 10573 10572 10573 10575 10575 10575 10576 10577 10577 10577 10577 10577 10577 10578 10578 10578 10578 10578 10577 10577 10577 10578 10578 10578 10577 10577 10577 10577 10576 10576 10575 10575 10574 10574 10575 10574 10573 10573 10572 10571 10569 10567 10565 10565 10563 10563 10562 10560 10559 10558 10557 10556 10555 10555 10554 10553 10552 10551 10550 10548 10548 10547 10546 10545 10545 10544 10543 10543 10543 10542 10542 10542 10541 10540 10540 10539 10538 10538 10537
10565 10567 10567 10567 10567 10567 10567 10567 10566 10566 10567 10568 10568 10568 10569 10570 10570 10571 10571 10570 10570 10571 10572 10572 10572 10572 10571 10570 10570 10571 10572 10571 10570 10570 10570 10570 10570 10569 10568 10568 10568 10568 10568 10567 10567 10566 10565 10564 10562 10560 10559 10558 10557 10556 10555 10554 10553 10552 10552 10550 10550 10549 10548 10547 10546 10545 10543 10543 10542 10542 10541 10540 10540 10540 10539 10539 10538 10538 10537 10537 10537 10536 10535 10535 10534 10533
10557 10558 10559 10560 10560 10560 10560 10559 10559 10559 10560 10561 10561 10561 10561 10562 10563 10565 10565 10564 10563 10564 10565 10565 10565 10565 10565 10565 10564 10563 10564 10564 10563 10563 10563 10564 10564 10563 10563 10563 10563 10562 10562 10562 10560 10560 10559 10558 10557 10555 10554 10553 10552 10550 10550 10548 10548 10547 10547 10545 10545 10544 10543 10542 10541 10540 10539 10538 10537 10537 10537 10536 10536 10535 10535 10535 10534 10533 10533 10533 10532 10532 10531 10530 10530 10529
10549 10550 10552 10552 10552 10552 10552 10552 10552 10552 10552 10553 10554 10554 10554 10554 10556 10558 10558 10557 10557 10558 10558 10558 10558 10558 10558 10559 10559 10558 10557 10557 10556 10556 10556 10557 10557 10557 10557 10557 10556 10556 10555 10555 10554 10553 10553 10552 10551 10550 10549 10548 10547 10545 10543 10543 10543 10542 10542 10540 10540 10539 10538 10538 10537 10535 10534 10533 10532 10532 10532 10532 10532 10531 10531 10530 10530 10530 10529 10528 10528 10527 10527 10527 10526 10525
10541 10542 10543 10543 10543 10543 10544 10544 10545 10544 10544 10545 10546 10547 10547 10548 10548 10550 10550 10550 10550 10551 10552 10553 10552 10551 10552 10552 10553 10552 10551 10550 10548 10548 10548 10548 10548 10549 10550 10549 10548 10547 10548 10547 10547 10546 10546 10546 10545 10545 10543 10543 10541 10539 10538 10537 10537 10537 10537 10535 10535 10534 10533 10533 10532 10530 10529 10528 10527 10527 10527 10527 10527 10527 10527 10526 10526 10525 10525 10524 10523 10523 10523 10522 10522 10521
10532 10533 10534 10534 10534 10535 10535 10535 10536 10536 10535 10536 10538 10539 10540 10540 10541 10542 10543 10543 10543 10543 10545 10545 10544 10543 10544 10545 10545 10545 10544 10542 10541 10540 10540 10540 10540 10541 10542 10542 10540 10539 10540 10540 10539 10538 10539 10540 10539 10538 10538 10538 10537 10534 10532 10531 10532 10532 10532 10530 10530 10529 10528 10528 10527 10526 10525 10523 10522 10522 10522 10522 10522 10522 10522 10521 10521 10520 10520 10520 10519 10518 10518 10518 10517 10517
10523 10524 10525 10525 10525 10525 10525 10526 10527 10527 10527 10527 10528 10530 10531 10532 10532 10533 10534 10534 10534 10535 10535 10536 10536 10535 10535 10535 10537 10538 10537 10535 10533 10532 10532 10532 10532 10532 10535 10535 10533 10532 10532 10532 10532 10532 10532 10533 10533 10533 10533 10533 10532 10529 10526 10524 10525 10526 10526 10525 10524 10523 10523 10523 10522 10521 10520 10519 10518 10517 10517 10517 10517 10517 10517 10517 10516 10516 10515 10515 10515 10514 10514 10513 10513 10513
10515 10515 10516 10516 10516 10515 10515 10516 10517 10517 10517 10518 10520 10520 10522 10522 10523 10523 10524 10525 10525 10525 10526 10526 10527 10527 10526 10526 10527 10528 10529 10528 10525 10523 10523 10523 10523 10524 10527 10527 10526 10524 10524 10525 10526 10526 10527 10527 10527 10528 10528 10528 10527 10525 10521 10518 10518 10520 10520 10520 10519 10518 10518 10518 10517 10517 10515 10514 10513 10513 10512 10512 10512 10512 10512 10512 10512 10512 10512 10511 10511 10510 10510 10510 10509 10509
10506 10507 10507 10507 10507 10507 10507 10507 10508 10508 10508 10510 10510 10512 10513 10513 10514 10515 10515 10515 10515 10516 10516 10517 10518 10518 10518 10518 10518 10518 10521 10522 10519 10517 10517 10517 10517 10517 10519 10520 10520 10518 10517 10518 10518 10520 10521 10521 10522 10522 10523 10523 10522 10520 10517 10513 10513 10514 10514 10514 10513 10513 10513 10512 10512 10512 10510 10510 10508 10508 10508 10508 10508 10508 10508 10508 10508 10508 10507 10507 10507 10507 10506 10505 10505 10505
10498 10498 10499 10499 10498 10498 10498 10499 10500 10500 10500 10501 10502 10503 10504 10505 10505 10506 10506 10506 10507 10507 10508 10508 10509 10510 10511 10511 10510 10511 10513 10515 10513 10512 10511 10511 10510 10511 10512 10513 10513 10512 10511 10511 10512 10512 10513 10513 10514 10515 10516 10516 10515 10513 10511 10509 10508 10508 10509 10509 10508 10508 10508 10507 10507 10507 10506 10505 10504 10503 10503 10503 10503 10504 10504 10504 10504 10503 10503 10503 10503 10502 10502 10502 10501 10500
10490 10490 10491 10491 10491 10492 10491 10491 10492 10492 10493 10493 10494 10495 10496 10496 10497 10497 10498 10498 10498 10500 10500 10502 10502 10502 10503 10504 10504 10504 10506 10508 10507 10505 10504 10504 10504 10505 10506 10507 10506 10505 10504 10503 10504 10505 10506 10506 10507 10507 10508 10508 10508 10507 10505 10504 10503 10504 10504 10504 10503 10503 10503 10502 10502 10502 10501 10500 10500 10499 10499 10499 10499 10499 10500 10500 10500 10499 10499 10498 10498 10498 10497 10497 10497 10496
10482 10482 10482 10483 10484 10485 10484 10483 10483 10485 10485 10486 10487 10488 10488 10488 10489 10490 10490 10490 10491 10492 10492 10493 10494 10495 10496 10497 10497 10497 10498 10500 10500 10498 10497 10497 10497 10497 10498 10499 10498 10497 10497 10497 10497 10498 10499 10498 10499 10500 10500 10501 10501 10500 10500 10499 10499 10499 10500 10499 10499 10498 10498 10497 10497 10497 10496 10495 10494 10493 10493 10494 10495 10495 10495 10495 10495 10495 10494 10494 10494 10493 10493 10492 10492 10492
10475 10474 10474 10475 10476 10477 10476 10476 10476 10477 10478 10479 10480 10480 10480 10481 10482 10482 10482 10483 10483 10483 10483 10484 10485 10485 10487 10487 10487 10487 10488 10491 10491 10490 10489 10490 10489 10489 10490 10492 10491 10490 10489 10489 10490 10491 10492 10492 10492 10493 10493 10495 10495 10495 10494 10494 10494 10495 10495 10495 10494 10494 10493 10493 10493 10492 10491 10490 10488 10488 10488 10489 10489 10490 10490 10490 10490 10490 10490 10489 10489 10488 10488 10488 10487 10487
10467 10467 10467 10467 10467 10468 10468 10468 10468 10468 10470 10470 10471 10472 10472 10473 10475 10475 10475 10475 10475 10475 10475 10475 10475 10475 10476 10477 10477 10477 10478 10480 10481 10481 10481 10480 10480 10480 10482 10483 10483 10482 10482 10482 10483 10483 10484 10485 10485 10486 10487 10488 10488 10488 10489 10489 10489 10490 10490 10490 10490 10490 10490 10489 10488 10488 10486 10485 10483 10483 10483 10483 10484 10485 10485 10485 10485 10485 10485 10485 10484 10484 10483 10483 10482 10482
10458 10458 10458 10458 10459 10459 10460 10460 10460 10461 10462 10462 10463 10463 10465 10466 10467 10468 10468 10468 10468 10468 10468 10467 10467 10467 10467 10467 10467 10468 10468 10470 10472 10472 10471 10471 10470 10471 10473 10475 10475 10474 10474 10475 10476 10477 10478 10478 10479 10480 10481 10482 10482 10483 10483 10483 10484 10485 10485 10485 10485 10485 10485 10485 10484 10483 10482 10480 10479 10478 10478 10478 10479 10479 10479 10480 10480 10480 10480 10480 10479 10478 10478 10478 10477 10476
10449 10450 10450 10450 10451 10452 10452 10452 10453 10453 10453 10454 10455 10456 10457 10458 10460 10460 10461 10462 10462 10462 10461 10461 10461 10461 10460 10462 10462 10462 10461 10463 10463 10463 10463 10462 10462 10463 10465 10467 10467 10467 10467 10468 10470 10471 10472 10472 10472 10473 10475 10475 10477 10477 10478 10478 10478 10479 10480 10480 10481 10481 10480 10480 10480 10478 10477 10476 10475 10474 10474 10474 10474 10474 10474 10475 10475 10475 10475 10474 10474 10473 10473 10472 10472 10471
10440 10441 10442 10442 10443 10443 10443 10444 10445 10445 10446 10447 10448 10448 10449 10451 10452 10453 10453 10453 10453 10453 10454 10455 10455 10455 10455 10457 10458 10457 10457 10459 10460 10459 10458 10457 10457 10456 10457 10460 10461 10460 10460 10462 10463 10465 10465 10465 10467 10468 10469 10470 10470 10472 10472 10473 10473 10474 10475 10475 10475 10476 10475 10475 10475 10473 10473 10472 10472 10471 10470 10470 10470 10470 10470 10470 10470 10470 10469 10469 10468 10468 10467 10467 10467 10467
10432 10432 10433 10434 10435 10435 10435 10436 10437 10438 10438 10440 10440 10441 10442 10443 10445 10445 10445 10444 10445 10447 10447 10447 10447 10448 10449 10450 10451 10452 10453 10455 10455 10455 10455 10454 10453 10452 10452 10454 10455 10455 10455 10455 10457 10458 10459 10460 10460 10462 10463 10463 10465 10466 10467 10467 10468 10469 10470 10470 10470 10470 10470 10470 10469 10469 10468 10468 10467 10467 10467 10466 10466 10465 10465 10465 10465 10464 10464 10463 10463 10463 10463 10462 10463 10463
10422 10423 10425 10425 10426 10427 10427 10428 10428 10429 10430 10432 10433 10433 10434 10435 10437 10437 10435 10435 10437 10439 10440 10439 10440 10441 10442 10443 10444 10445 10447 10448 10449 10450 10450 10450 10449 10447 10447 10450 10450 10451 10450 10450 10451 10452 10453 10454 10455 10456 10457 10458 10459 10460 10460 10462 10462 10463 10463 10464 10465 10465 10465 10464 10464 10464 10463 10463 10463 10463 10462 10462 10462 10461 10460 10460 10460 10459 10459 10458 10458 10458 10458 10458 10458 10458
10413 10414 10415 10417 10417 10418 10418 10419 10420 10420 10421 10423 10425 10425 10426 10427 10428 10428 10427 10428 10430 10432 10431 10431 10432 10433 10435 10436 10437 10438 10440 10441 10442 10443 10445 10445 10443 10442 10443 10445 10446 10445 10446 10445 10445 10446 10447 10448 10449 10450 10451 10452 10453 10454 10454 10455 10456 10457 10458 10458 10458 10458 10459 10459 10459 10459 10459 10458 10458 10458 10458 10457 10457 10456 10456 10455 10455 10455 10454 10454 10454 10454 10454 10454 10455 10455
10403 10404 10405 10407 10407 10408 10410 10410 10410 10411 10412 10415 10416 10417 10417 10418 10418 10419 10418 10420 10422 10423 10423 10423 10425 10426 10427 10428 10430 10431 10432 10433 10435 10437 10438 10438 10436 10435 10438 10440 10440 10440 10441 10441 10441 10440 10441 10442 10443 10445 10445 10446 10447 10448 10448 10449 10450 10450 10451 10452 10452 10453 10453 10453 10453 10453 10453 10453 10453 10453 10452 10452 10452 10451 10450 10450 10450 10450 10450 10450 10450 10450 10450 10450 10450 10450
10393 10394 10395 10397 10397 10399 10400 10402 10402 10402 10403 10405 10407 10408 10409 10410 10410 10410 10411 10412 10414 10415 10416 10417 10417 10418 10420 10422 10423 10423 10423 10425 10428 10430 10432 10431 10429 10430 10433 10434 10434 10435 10436 10437 10436 10435 10435 10436 10437 10439 10440 10441 10441 10442 10442 10443 10443 10443 10443 10445 10445 10445 10447 10447 10447 10448 10447 10447 10447 10447 10447 10446 10446 10446 10445 10445 10445 10445 10445 10445 10446 10446 10446 10446 10446 10445
10383 10385 10386 10387 10388 10390 10391 10392 10393 10393 10395 10396 10397 10399 10400 10401 10402 10402 10403 10404 10405 10407 10408 10409 10410 10411 10412 10414 10415 10415 10416 10418 10420 10423 10425 10425 10423 10423 10427 10428 10428 10429 10431 10432 10432 10431 10431 10431 10432 10433 10435 10435 10436 10436 10437 10437 10438 10437 10438 10438 10438 10438 10440 10440 10441 10442 10442 10442 10442 10442 10442 10441 10441 10441 10441 10441 10441 10441 10441 10441 10442 10442 10442 10442 10442 10441
10373 10375 10376 10377 10379 10380 10382 10383 10384 10385 10386 10387 10388 10390 10392 10392 10393 10393 10394 10396 10398 10400 10401 10402 10403 10404 10405 10407 10408 10408 10409 10411 10413 10416 10418 10418 10418 10418 10420 10422 10423 10424 10425 10426 10427 10427 10427 10427 10427 10428 10430 10430 10430 10431 10432 10432 10432 10433 10433 10433 10433 10433 10434 10435 10436 10437 10437 10437 10437 10437 10437 10437 10437 10437 10437 10437 10437 10437 10437 10437 10437 10438 10438 10438 10437 10437
10364 10366 10367 10368 10370 10372 10372 10374 10375 10377 10377 10378 10380 10380 10382 10383 10383 10384 10386 10387 10389 10392 10393 10395 10396 10397 10398 10400 10401 10402 10403 10404 10406 10409 10412 10412 10412 10412 10413 10415 10417 10418 10419 10420 10420 10421 10422 10422 10423 10423 10424 10425 10425 10426 10427 10427 10427 10427 10428 10428 10429 10429 10430 10431 10432 10433 10433 10433 10433 10433 10433 10433 10433 10433 10433 10433 10432 10432 10432 10432 10432 10433 10433 10433 10433 10432
10355 10357 10358 10360 10362 10363 10364 10365 10367 10368 10369 10370 10371 10372 10373 10374 10375 10375 10377 10379 10381 10383 10385 10387 10389 10390 10392 10393 10394 10395 10395 10397 10399 10402 10405 10406 10406 10407 10408 10409 10410 10412 10413 10413 10413 10415 10417 10417 10418 10419 10419 10420 10420 10421 10422 10422 10422 10422 10423 10423 10424 10425 10425 10427 10428 10428 10428 10429 10430 10430 10429 10429 10429 10429 10429 10428 10428 10428 10427 10427 10427 10427 10428 10428 10428 10427
10346 10348 10350 10352 10354 10355 10356 10357 10358 10360 10361 10362 10362 10363 10364 10365 10366 10367 10368 10370 10372 10375 10377 10380 10382 10383 10385 10387 10387 10388 10388 10390 10392 10395 10398 10399 10400 10401 10402 10403 10404 10405 10406 10406 10407 10409 10410 10411 10412 10413 10415 10415 10415 10415 10417 10417 10418 10418 10418 10418 10419 10420 10420 10422 10423 10423 10424 10425 10425 10425 10425 10425 10425 10425 10425 10424 10423 10423 10422 10422 10422 10422 10422 10422 10422 10422
10338 10340 10342 10344 10346 10348 10348 10349 10350 10352 10353 10353 10354 10355 10356 10357 10357 10358 10360 10362 10364 10367 10369 10372 10373 10375 10377 10379 10380 10382 10382 10384 10386 10388 10390 10392 10393 10395 10395 10396 10397 10399 10400 10400 10401 10402 10404 10405 10407 10408 10410 10410 10411 10411 10412 10412 10413 10413 10413 10413 10414 10415 10415 10416 10417 10418 10419 10420 10420 10420 10420 10420 10420 10420 10420 10420 10419 10418 10417 10416 10415 10415 10415 10416 10417 10417
10329 10332 10333 10336 10338 10340 10341 10342 10343 10344 10345 10345 10346 10347 10347 10348 10349 10350 10352 10353 10356 10358 10361 10363 10365 10367 10368 10370 10372 10374 10376 10378 10380 10381 10382 10384 10385 10387 10388 10389 10390 10392 10393 10393 10395 10397 10398 10400 10400 10402 10403 10405 10407 10407 10408 10408 10408 10408 10407 10408 10409 10410 10410 10411 10412 10413 10413 10414 10415 10415 10415 10415 10415 10415 10415 10415 10414 10413 10412 10411 10410 10410 10410 10410 10411 10411
10321 10323 10325 10328 10330 10332 10333 10334 10335 10335 10337 10337 10338 10338 10340 10341 10342 10343 10344 10346 10348 10350 10353 10355 10357 10358 10360 10362 10363 10366 10368 10370 10372 10374 10375 10377 10378 10380 10381 10382 10383 10383 10385 10386 10387 10389 10390 10392 10393 10394 10397 10399 10402 10403 10404 10405 10404 10403 10403 10403 10404 10405 10405 10406 10407 10408 10408 10408 10409 10410 10410 10410 10410 10410 10410 10409 10409 10408 10407 10406 10405 10405 10404 10405 10405 10406
10313 10315 10317 10319 10322 10323 10325 10326 10327 10327 10328 10329 10330 10331 10332 10333 10335 10336 10337 10338 10340 10342 10345 10347 10348 10350 10352 10353 10355 10357 10359 10362 10364 10367 10368 10370 10372 10373 10375 10376 10377 10377 10378 10378 10379 10380 10381 10382 10383 10384 10387 10391 10395 10398 10399 10400 10400 10399 10399 10399 10398 10398 10400 10402 10402 10403 10403 10403 10403 10404 10404 10404 10404 10404 10404 10404 10403 10403 10402 10401 10400 10399 10399 10400 10400 10401
10305 10307 10308 10310 10313 10315 10317 10318 10318 10320 10321 10322 10323 10324 10325 10326 10328 10329 10330 10331 10333 10334 10336 10338 10340 10342 10343 10345 10347 10348 10351 10353 10355 10358 10360 10362 10365 10367 10368 10370 10370 10372 10372 10372 10372 10373 10373 10373 10373 10373 10375 10379 10385 10390 10392 10393 10394 10394 10394 10393 10393 10393 10394 10396 10397 10397 10397 10398 10398 10398 10398 10398 10398 10398 10398 10398 10398 10397 10397 10396 10395 10395 10395 10395 10396 10397
10297 10298 10299 10301 10304 10306 10308 10309 10311 10312 10313 10315 10315 10316 10317 10318 10320 10322 10322 10323 10325 10326 10328 10330 10332 10334 10335 10337 10338 10341 10343 10345 10347 10349 10352 10354 10357 10359 10361 10363 10364 10366 10367 10368 10368 10368 10368 10368 10367 10365 10365 10367 10372 10377 10382 10385 10387 10388 10388 10387 10387 10387 10388 10389 10390 10391 10392 10392 10392 10392 10392 10392 10392 10392 10392 10392 10392 10392 10391 10391 10390 10390 10390 10390 10391 10391
10287 10288 10290 10292 10295 10297 10299 10301 10303 10305 10306 10307 10308 10308 10310 10312 10313 10315 10315 10316 10317 10318 10320 10322 10324 10326 10328 10329 10331 10333 10335 10337 10339 10341 10343 10345 10348 10350 10352 10355 10357 10359 10361 10363 10363 10364 10364 10365 10364 10362 10360 10359 10361 10365 10370 10375 10378 10380 10380 10381 10381 10382 10382 10382 10383 10385 10385 10385 10385 10386 10386 10386 10386 10386 10387 10387 10386 10386 10385 10385 10385 10385 10385 10386 10386 10386
10278 10280 10281 10283 10285 10288 10290 10292 10294 10296 10298 10300 10301 10302 10302 10305 10307 10308 10308 10308 10309 10310 10313 10315 10317 10318 10320 10322 10323 10325 10328 10330 10332 10333 10335 10337 10339 10341 10343 10345 10348 10350 10353 10356 10358 10358 10360 10360 10360 10359 10358 10357 10357 10358 10361 10365 10368 10371 10372 10373 10375 10375 10375 10375 10377 10378 10379 10380 10380 10380 10380 10380 10380 10380 10380 10380 10380 10380 10380 10380 10380 10380 10380 10381 10381 10381
10270 10271 10272 10273 10276 10278 10281 10283 10285 10288 10290 10292 10293 10294 10295 10297 10299 10300 10301 10301 10302 10303 10305 10307 10309 10312 10313 10313 10315 10318 10320 10322 10324 10327 10328 10330 10332 10333 10335 10337 10338 10342 10345 10347 10350 10352 10354 10355 10355 10355 10355 10355 10354 10354 10356 10358 10360 10363 10365 10366 10368 10368 10368 10370 10371 10372 10373 10373 10374 10375 10375 10375 10375 10375 10375 10375 10375 10375 10375 10375 10375 10375 10375 10375 10376 10376
10260 10262 10263 10264 10266 10268 10270 10273 10276 10279 10282 10284 10285 10286 10287 10289 10292 10293 10293 10293 10294 10295 10297 10299 10302 10304 10305 10305 10308 10311 10313 10315 10317 10319 10321 10323 10325 10327 10328 10329 10331 10333 10335 10338 10342 10345 10347 10348 10350 10350 10351 10351 10350 10351 10352 10353 10355 10357 10358 10360 10362 10362 10363 10364 10365 10366 10367 10368 10368 10369 10370 10370 10370 10370 10370 10369 10370 10370 10370 10370 10370 10370 10370 10371 10371 10371
10249 10252 10253 10255 10257 10258 10260 10263 10267 10270 10273 10275 10277 10278 10280 10282 10283 10285 10285 10286 10287 10288 10290 10292 10294 10296 10297 10298 10300 10303 10305 10307 10309 10312 10314 10316 10318 10320 10321 10323 10324 10326 10328 10330 10333 10335 10338 10341 10343 10344 10345 10345 10346 10346 10347 10348 10350 10351 10352 10353 10355 10357 10357 10358 10359 10360 10362 10363 10363 10364 10365 10365 10365 10365 10365 10365 10365 10365 10365 10365 10365 10366 10366 10366 10367 10367
10236 10240 10243 10245 10247 10248 10251 10253 10257 10260 10263 10265 10268 10270 10272 10274 10275 10276 10277 10278 10279 10281 10283 10285 10287 10288 10290 10291 10293 10295 10297 10300 10302 10303 10307 10308 10311 10313 10315 10317 10318 10320 10322 10323 10325 10327 10330 10332 10335 10337 10338 10339 10340 10340 10341 10343 10345 10346 10347 10348 10350 10351 10352 10352 10353 10355 10357 10358 10358 10359 10360 10360 10360 10360 10360 10360 10360 10360 10360 10360 10361 10361 10362 10362 10362 10362
10223 10226 10230 10233 10236 10238 10240 10243 10246 10250 10253 10256 10258 10261 10263 10265 10267 10268 10268 10269 10270 10272 10274 10276 10278 10281 10283 10284 10285 10287 10290 10292 10294 10296 10298 10301 10303 10306 10308 10310 10312 10314 10315 10317 10318 10320 10322 10324 10327 10328 10330 10332 10333 10334 10335 10337 10338 10340 10342 10343 10344 10345 10346 10347 10348 10350 10351 10352 10353 10353 10354 10355 10355 10355 10355 10355 10355 10355 10355 10355 10356 10357 10357 10357 10357 10357
10209 10213 10216 10221 10224 10226 10229 10231 10235 10239 10243 10246 10249 10252 10254 10256 10258 10259 10260 10261 10262 10263 10266 10268 10272 10274 10276 10277 10278 10280 10282 10284 10287 10288 10291 10293 10296 10298 10301 10303 10305 10308 10310 10311 10313 10314 10316 10317 10319 10320 10322 10325 10326 10327 10328 10330 10332 10334 10336 10337 10338 10340 10340 10341 10342 10344 10345 10347 10347 10348 10349 10349 10350 10350 10350 10350 10350 10349 10350 10350 10350 10351 10352 10352 10353 10353
10195 10199 10203 10207 10211 10214 10217 10220 10224 10228 10231 10235 10238 10242 10245 10247 10248 10250 10252 10253 10254 10255 10257 10261 10264 10267 10268 10269 10270 10272 10274 10277 10279 10281 10283 10285 10288 10291 10293 10296 10298 10301 10303 10305 10307 10308 10310 10312 10313 10313 10315 10317 10318 10320 10322 10323 10325 10327 10329 10330 10332 10333 10335 10335 10337 10338 10340 10341 10342 10342 10343 10343 10344 10344 10345 10345 10344 10344 10345 10345 10345 10346 10347 10348 10348 10348